Crystal River, FL

2:35 AM EST on November 22, 2017 (GMT -0500)
Crystal River

Weather History for KCGC - October, 2013

Change the Weather History Date:

Monday, October 7, 2013

  Actual Average (KBKV) Record (KBKV)
Temperature  
Mean Temperature 76 °F -  
Max Temperature 82 °F 83 °F 93 °F (2017)
Min Temperature 71 °F 63 °F 42 °F (2010)
Cooling Degree Days 12    
Growing Degree Days 26 (Base 50)    
Moisture  
Dew Point 73 °F    
Average Humidity 90    
Maximum Humidity 100    
Minimum Humidity 78    
Precipitation  
Precipitation 0.27 in - - ()
Sea Level Pressure  
Sea Level Pressure 29.81 in    
Wind  
Wind Speed 1 mph (SSW)    
Max Wind Speed 14 mph    
Max Gust Speed 28 mph    
Visibility 10 miles    
Events Rain , Thunderstorm    
Averages and records for this station are not official NWS values.
T = Trace of Precipitation, MM = Missing Value Source: NWS Daily Summary

Daily Weather History Graph

Daily Weather History Graph

Search for Another Location

Airport or City:

Trip Planner

Search our weather history database for the weather conditions in past years. The results will help you decide how hot, cold, wet, or windy it might be!

Date:

Astronomy

Oct. 07, 2013 Rise Set
Actual Time 7:26 AM EDT 7:08 PM EDT
Civil Twilight 7:03 AM EDT 7:32 PM EDT
Nautical Twilight 6:35 AM EDT 7:59 PM EDT
Astronomical Twilight 6:08 AM EDT 8:27 PM EDT
Moon 10:00 AM EDT (10/7) 9:08 PM EDT (10/7)
Length of Visible Light 12h 29m
Length of Day
11h 42m
Waxing Crescent, 8% of the Moon is Illuminated
Oct 7
Waxing Crescent
Oct 11
First Quarter
Oct 18
Full
Oct 26
Last Quarter
Nov 3
New

Hourly Weather History & Observations

Time (EDT) Temp. Heat Index Dew Point Humidity Pressure Visibility Wind Dir Wind Speed Gust Speed Precip Events Conditions
12:15 AM 71.6 °F - 69.8 °F 94% 29.88 in 10.0 mi Calm Calm - N/A   Clear
12:35 AM 73.4 °F - 69.8 °F 88% 29.88 in 10.0 mi Calm Calm - N/A   Clear
12:55 AM 73.4 °F - 69.8 °F 88% 29.88 in 10.0 mi Calm Calm - N/A   Clear
1:15 AM 73.4 °F - 69.8 °F 88% 29.87 in 10.0 mi Calm Calm - N/A   Clear
1:35 AM 71.6 °F - 69.8 °F 94% 29.87 in 10.0 mi Calm Calm - N/A   Clear
1:55 AM 71.6 °F - 69.8 °F 94% 29.87 in 10.0 mi SE 3.5 mph - N/A   Clear
2:15 AM 71.6 °F - 69.8 °F 94% 29.86 in 10.0 mi Calm Calm - N/A   Clear
2:35 AM 71.6 °F - 69.8 °F 94% 29.86 in 10.0 mi Calm Calm - N/A   Scattered Clouds
2:55 AM 71.6 °F - 69.8 °F 94% 29.85 in 10.0 mi Calm Calm - N/A   Scattered Clouds
3:15 AM 71.6 °F - 69.8 °F 94% 29.84 in 10.0 mi Calm Calm - N/A   Clear
3:35 AM 71.6 °F - 69.8 °F 94% 29.83 in 10.0 mi Calm Calm - N/A   Clear
3:55 AM 71.6 °F - 69.8 °F 94% 29.83 in 10.0 mi Calm Calm - N/A   Clear
4:15 AM 71.6 °F - 69.8 °F 94% 29.83 in 10.0 mi Calm Calm - N/A   Clear
4:35 AM 71.6 °F - 69.8 °F 94% 29.82 in 10.0 mi Calm Calm - N/A   Clear
4:55 AM 71.6 °F - 69.8 °F 94% 29.82 in 10.0 mi Calm Calm - N/A   Clear
5:15 AM 71.6 °F - 69.8 °F 94% 29.82 in 10.0 mi Calm Calm - N/A   Clear
5:35 AM 71.6 °F - 69.8 °F 94% 29.82 in 10.0 mi Calm Calm - N/A   Clear
5:55 AM 71.6 °F - 69.8 °F 94% 29.82 in 10.0 mi Calm Calm - N/A   Clear
6:15 AM 71.6 °F - 69.8 °F 94% 29.81 in 10.0 mi ESE 3.5 mph - N/A   Clear
6:35 AM 71.6 °F - 69.8 °F 94% 29.81 in 10.0 mi Calm Calm - N/A   Clear
6:55 AM 71.6 °F - 69.8 °F 94% 29.81 in 10.0 mi Calm Calm - N/A   Clear
7:15 AM 71.6 °F - 69.8 °F 94% 29.80 in 10.0 mi Calm Calm - N/A   Scattered Clouds
7:35 AM 73.4 °F - 71.6 °F 94% 29.80 in 10.0 mi Calm Calm - N/A Rain Light Rain
7:55 AM 73.4 °F - 71.6 °F 94% 29.83 in 10.0 mi Calm Calm - N/A   Scattered Clouds
8:15 AM 73.4 °F - 71.6 °F 94% 29.84 in 10.0 mi Calm Calm - N/A   Light Drizzle
8:35 AM 73.4 °F - 71.6 °F 94% 29.84 in 10.0 mi Calm Calm - N/A   Mostly Cloudy
8:55 AM 73.4 °F - 71.6 °F 94% 29.85 in 10.0 mi Calm Calm - N/A   Overcast
9:15 AM 75.2 °F - 71.6 °F 89% 29.84 in 10.0 mi Calm Calm - N/A   Overcast
9:35 AM 77.0 °F - 71.6 °F 83% 29.85 in 10.0 mi Calm Calm - N/A   Overcast
9:55 AM 77.0 °F - 71.6 °F 83% 29.84 in 10.0 mi SSE 3.5 mph - N/A   Mostly Cloudy
10:15 AM 77.0 °F - 71.6 °F 83% 29.85 in 10.0 mi SSE 3.5 mph - N/A   Overcast
10:35 AM 77.0 °F - 71.6 °F 83% 29.85 in 10.0 mi Calm Calm - N/A   Overcast
10:55 AM 77.0 °F - 71.6 °F 83% 29.84 in 10.0 mi Calm Calm - N/A   Mostly Cloudy
11:15 AM 78.8 °F - 71.6 °F 78% 29.84 in 10.0 mi Calm Calm - N/A   Overcast
11:35 AM 77.0 °F - 73.4 °F 89% 29.84 in 10.0 mi SE 3.5 mph - 0.01 in   Overcast
11:55 AM 78.8 °F - 73.4 °F 83% 29.83 in 7.0 mi SE 3.5 mph - 0.01 in Rain Light Rain
12:15 PM 78.8 °F - 73.4 °F 83% 29.82 in 7.0 mi South 4.6 mph - N/A   Overcast
12:35 PM 78.8 °F - 75.2 °F 89% 29.81 in 5.0 mi Calm Calm - N/A Rain Light Rain
12:55 PM 80.6 °F 86.2 °F 75.2 °F 84% 29.80 in 10.0 mi South 3.5 mph - N/A   Overcast
1:15 PM 80.6 °F 85.4 °F 73.4 °F 79% 29.79 in 10.0 mi SSE 4.6 mph - N/A   Overcast
1:35 PM 78.8 °F - 77.0 °F 94% 29.78 in 10.0 mi ESE 5.8 mph - 0.11 in   Overcast
1:55 PM 80.6 °F 87.1 °F 77.0 °F 89% 29.76 in 10.0 mi South 3.5 mph - 0.11 in Thunderstorm Overcast
2:15 PM 78.8 °F - 73.4 °F 83% 29.77 in 5.0 mi Calm Calm - 0.01 in Rain , Thunderstorm Rain
2:35 PM 80.6 °F 87.1 °F 77.0 °F 89% 29.75 in 10.0 mi SSE 3.5 mph - 0.01 in   Mostly Cloudy
2:55 PM 82.4 °F 89.5 °F 75.2 °F 79% 29.75 in 10.0 mi SW 9.2 mph - 0.01 in Thunderstorm Mostly Cloudy
3:15 PM 80.6 °F 85.4 °F 73.4 °F 79% 29.75 in 7.0 mi SW 4.6 mph - 0.01 in Rain , Thunderstorm Light Thunderstorms and Rain
3:35 PM 82.4 °F 89.5 °F 75.2 °F 79% 29.73 in 10.0 mi WSW 9.2 mph - 0.01 in Thunderstorm Overcast
3:55 PM 82.4 °F 89.5 °F 75.2 °F 79% 29.73 in 10.0 mi SSW 4.6 mph - 0.01 in Thunderstorm Mostly Cloudy
4:15 PM 80.6 °F 86.2 °F 75.2 °F 84% 29.74 in 7.0 mi West 13.8 mph 27.6 mph N/A Thunderstorm Thunderstorm
4:35 PM 78.8 °F - 75.2 °F 89% 29.74 in 5.0 mi WSW 8.1 mph - 0.08 in Rain Light Rain
4:55 PM 80.6 °F 87.1 °F 77.0 °F 89% 29.74 in 10.0 mi West 9.2 mph - 0.08 in Thunderstorm Overcast
5:15 PM 78.8 °F - 75.2 °F 89% 29.74 in 4.0 mi West 6.9 mph 18.4 mph 0.02 in Rain Light Rain
5:35 PM 80.6 °F 87.1 °F 77.0 °F 89% 29.74 in 10.0 mi West 4.6 mph - 0.02 in   Overcast
5:55 PM 78.8 °F - 77.0 °F 94% 29.74 in 5.0 mi Calm Calm - 0.04 in Rain Rain
6:15 PM 78.8 °F - 77.0 °F 94% 29.74 in 10.0 mi Calm Calm - N/A   Overcast
6:35 PM 78.8 °F - 75.2 °F 89% 29.75 in 10.0 mi West 4.6 mph - N/A   Mostly Cloudy
6:55 PM 78.8 °F - 75.2 °F 89% 29.75 in 10.0 mi Calm Calm - N/A   Scattered Clouds
7:35 PM 77.0 °F - 73.4 °F 89% 29.76 in 10.0 mi Calm Calm - 0.01 in   Scattered Clouds
7:55 PM 77.0 °F - 73.4 °F 89% 29.77 in 10.0 mi North 3.5 mph - 0.01 in   Clear
8:15 PM 77.0 °F - 73.4 °F 89% 29.77 in 10.0 mi Calm Calm - N/A   Clear
8:35 PM 77.0 °F - 73.4 °F 89% 29.78 in 10.0 mi Calm Calm - N/A   Mostly Cloudy
8:55 PM 77.0 °F - 73.4 °F 89% 29.79 in 10.0 mi Calm Calm - N/A   Mostly Cloudy
9:15 PM 77.0 °F - 73.4 °F 89% 29.80 in 10.0 mi NW 5.8 mph - N/A   Mostly Cloudy
9:35 PM 75.2 °F - 73.4 °F 94% 29.81 in 10.0 mi NNW 3.5 mph - N/A   Overcast
9:55 PM 75.2 °F - 73.4 °F 94% 29.81 in 10.0 mi North 4.6 mph - N/A   Overcast
10:15 PM 75.2 °F - 73.4 °F 94% 29.82 in 10.0 mi NNW 4.6 mph - N/A   Mostly Cloudy
10:35 PM 75.2 °F - 73.4 °F 94% 29.81 in 10.0 mi Calm Calm - N/A   Scattered Clouds
10:55 PM 73.4 °F - 73.4 °F 100% 29.82 in 10.0 mi Calm Calm - N/A   Scattered Clouds
11:15 PM 73.4 °F - 73.4 °F 100% 29.83 in 10.0 mi Calm Calm - N/A   Scattered Clouds
11:35 PM 73.4 °F - 73.4 °F 100% 29.83 in 10.0 mi Calm Calm - N/A   Overcast
11:55 PM 73.4 °F - 73.4 °F 100% 29.83 in 10.0 mi Calm Calm - N/A   Overcast